Flag for Bahrain Weather past 2 weeks in Riffa, Bahrain

Now
66 °F

Clear.


Feels Like: 66 °F
Forecast: 63 / 76 °F
Wind: 5 mph from South

Location: Bahrain International Airport

Current Time: Jan 29, 2015 at 1:44:01 AM

Latest Report: Jan 29, 2015 at 1:00 AM


Visibility: 6 mi

Pressure: 29.98 "Hg

Humidity: 73%

Dew point: 57 °F

Location of RiffaLocation

Historic Weather in Riffa — Graph

°F

Riffa temperature yesterday

Maximum temperature yesterday: 75 °F (at 3:00 PM)
Minimum temperature yesterday: 63 °F (at 5:00 AM)
Average temperature yesterday: 67 °F

Past Weeks' High & Low Weather Summary

 TemperatureHumidityPressure
High75 °F (Jan 28, 3:00 PM)100% (Jan 17, 7:00 AM)30.27 "Hg (Jan 17, 7:00 AM)
Low54 °F (Jan 24, 4:00 AM)27% (Jan 24, 12:00 PM)29.95 "Hg (Jan 28, 3:00 PM)
Average63 °F69%30.13 "Hg
* Reported Midnight between Jan 13 and Jan 14 — Midnight between Jan 28 and Jan 29, Riffa, Weather by CustomWeather, © 2014

Note: Actual official high and low records may vary slightly from our data, if they occured in-between our weather recording intervals... More about our weather records

Advertising

Riffa weather history for previous 24 hours

 ConditionsComfort  
Time TempWeatherWind HumidityBarometerVisibility
12:00 AM
Jan 29
64 °FClear.7 mph83%29.98 "Hg5 mi
11:00 PM
Jan 28
64 °FClear.6 mph83%30.01 "Hg5 mi
10:00 PM66 °FClear.7 mph78%30.01 "Hg10 mi
9:00 PM66 °FClear.13 mph73%30.01 "Hg10 mi
8:00 PM68 °FClear.10 mph73%30.01 "Hg10 mi
7:00 PM66 °FClear.8 mph83%29.98 "Hg10 mi
6:00 PM68 °FClear.6 mph73%29.98 "Hg10 mi
5:00 PM70 °FSunny.7 mph69%29.95 "Hg10 mi
4:00 PM70 °FSunny.8 mph73%29.95 "Hg10 mi
3:00 PM75 °FPassing clouds.9 mph41%29.95 "HgN/A
2:00 PM73 °FClear.9 mph47%29.98 "Hg4 mi
1:00 PM70 °FClear.10 mph60%30.01 "Hg4 mi
12:00 PM70 °FClear.10 mph60%30.04 "Hg4 mi
11:00 AM68 °FClear.9 mph69%30.07 "Hg4 mi
10:00 AM66 °FHaze.8 mph73%30.09 "Hg3 mi
9:00 AM68 °FClear.8 mph73%30.09 "Hg4 mi
8:00 AM66 °FClear.6 mph73%30.09 "Hg4 mi
7:00 AM63 °FHaze.5 mph83%30.07 "Hg2 mi
6:00 AM63 °FClear.6 mph77%30.07 "Hg4 mi
5:00 AM63 °FClear.5 mph83%30.04 "Hg4 mi
4:00 AM64 °FClear.6 mph73%30.01 "Hg4 mi
3:00 AM64 °FClear.5 mph78%30.04 "Hg4 mi
2:00 AM64 °FClear.7 mph78%30.04 "Hg4 mi
1:00 AM64 °FClear.6 mph78%30.07 "Hg5 mi
Weather by CustomWeather, © 2014

See weather overviewHow to use our weather pages